Time,TemperatureF,DewpointF,PressureIn,WindDirection,WindDirectionDegrees,WindSpeedMPH,WindSpeedGustMPH,Humidity,HourlyPrecipIn,Conditions,Clouds,dailyrainin,SoftwareType,DateUTC
2013-02-19 00:00:00,21.9,4.0,29.87,WNW,292,10.5,18.0,44,0.00,,,0.00,Rainwise IP-100,2013-02-19 05:00:00,
2013-02-19 00:05:00,21.9,4.0,29.87,NW,315,12.8,17.7,44,0.00,,,0.00,Rainwise IP-100,2013-02-19 05:05:00,
2013-02-19 00:10:00,22.0,4.0,29.90,WSW,247,4.4,20.1,44,0.00,,,0.00,Rainwise IP-100,2013-02-19 05:10:00,
2013-02-19 00:15:00,22.0,4.0,29.90,WNW,292,11.4,21.5,44,0.00,,,0.00,Rainwise IP-100,2013-02-19 05:15:00,
2013-02-19 00:20:00,22.1,4.0,29.85,WNW,292,5.6,17.0,43,0.00,,,0.00,Rainwise IP-100,2013-02-19 05:20:00,
2013-02-19 00:25:00,22.2,4.0,29.87,NW,315,13.1,21.0,43,0.00,,,0.00,Rainwise IP-100,2013-02-19 05:25:00,
2013-02-19 00:30:00,22.3,4.0,29.87,WNW,292,15.2,24.7,43,0.00,,,0.00,Rainwise IP-100,2013-02-19 05:30:00,
2013-02-19 00:35:00,22.4,4.0,29.91,WNW,292,10.3,25.6,43,0.00,,,0.00,Rainwise IP-100,2013-02-19 05:35:00,
2013-02-19 00:40:00,22.4,4.0,29.88,NW,315,10.3,24.2,42,0.00,,,0.00,Rainwise IP-100,2013-02-19 05:40:00,
2013-02-19 00:45:00,22.3,4.0,29.88,WNW,292,12.8,17.7,42,0.00,,,0.00,Rainwise IP-100,2013-02-19 05:45:00,
2013-02-19 00:47:00,22.3,4.0,29.89,NW,315,7.9,22.4,42,0.00,,,0.00,Rainwise IP-100,2013-02-19 05:47:00,
2013-02-19 00:52:00,22.3,4.0,29.88,WNW,292,4.7,18.2,43,0.00,,,0.00,Rainwise IP-100,2013-02-19 05:52:00,
2013-02-19 00:57:00,22.2,4.0,29.91,West,270,2.6,21.5,43,0.00,,,0.00,Rainwise IP-100,2013-02-19 05:57:00,
2013-02-19 01:02:00,22.0,4.0,29.90,West,270,9.8,17.3,45,0.00,,,0.00,Rainwise IP-100,2013-02-19 06:02:00,
2013-02-19 01:07:00,21.8,4.0,29.90,West,270,5.6,16.6,45,0.00,,,0.00,Rainwise IP-100,2013-02-19 06:07:00,
2013-02-19 01:12:00,21.6,8.0,29.91,WNW,292,9.8,21.5,46,0.00,,,0.00,Rainwise IP-100,2013-02-19 06:12:00,
2013-02-19 01:17:00,21.4,4.0,29.92,NW,315,14.9,18.0,46,0.00,,,0.00,Rainwise IP-100,2013-02-19 06:17:00,
2013-02-19 01:22:00,21.2,4.0,29.92,West,270,11.0,18.0,46,0.00,,,0.00,Rainwise IP-100,2013-02-19 06:22:00,
2013-02-19 01:27:00,21.2,4.0,29.92,NW,315,7.9,21.0,46,0.00,,,0.00,Rainwise IP-100,2013-02-19 06:27:00,
2013-02-19 01:32:00,21.2,4.0,29.92,WNW,292,5.8,24.5,46,0.00,,,0.00,Rainwise IP-100,2013-02-19 06:32:00,
2013-02-19 01:37:00,21.2,4.0,29.92,West,270,4.2,18.2,46,0.00,,,0.00,Rainwise IP-100,2013-02-19 06:37:00,
2013-02-19 01:42:00,21.3,4.0,29.91,WSW,247,8.2,16.1,46,0.00,,,0.00,Rainwise IP-100,2013-02-19 06:42:00,
2013-02-19 01:47:00,21.3,4.0,29.92,West,270,7.5,18.0,46,0.00,,,0.00,Rainwise IP-100,2013-02-19 06:47:00,
2013-02-19 01:52:00,21.4,4.0,29.91,WNW,292,10.7,17.0,46,0.00,,,0.00,Rainwise IP-100,2013-02-19 06:52:00,
2013-02-19 01:57:00,21.4,4.0,29.92,West,270,15.9,18.7,46,0.00,,,0.00,Rainwise IP-100,2013-02-19 06:57:00,
2013-02-19 02:02:00,21.4,4.0,29.92,WNW,292,5.4,18.9,46,0.00,,,0.00,Rainwise IP-100,2013-02-19 07:02:00,
2013-02-19 02:07:00,21.3,4.0,29.94,West,270,5.8,14.2,46,0.00,,,0.00,Rainwise IP-100,2013-02-19 07:07:00,
2013-02-19 02:12:00,21.1,4.0,29.95,WNW,292,12.1,16.6,46,0.00,,,0.00,Rainwise IP-100,2013-02-19 07:12:00,
2013-02-19 02:17:00,21.1,4.0,29.96,NW,315,3.5,15.2,46,0.00,,,0.00,Rainwise IP-100,2013-02-19 07:17:00,
2013-02-19 02:22:00,21.0,4.0,29.94,West,270,6.3,14.2,46,0.00,,,0.00,Rainwise IP-100,2013-02-19 07:22:00,
2013-02-19 02:27:00,21.0,4.0,29.92,WNW,292,7.9,13.1,46,0.00,,,0.00,Rainwise IP-100,2013-02-19 07:27:00,
2013-02-19 02:32:00,21.1,4.0,29.95,West,270,12.8,15.9,46,0.00,,,0.00,Rainwise IP-100,2013-02-19 07:32:00,
2013-02-19 02:37:00,21.2,4.0,29.95,NNW,337,8.6,14.5,45,0.00,,,0.00,Rainwise IP-100,2013-02-19 07:37:00,
2013-02-19 02:42:00,21.2,4.0,29.95,NW,315,9.6,17.3,45,0.00,,,0.00,Rainwise IP-100,2013-02-19 07:42:00,
2013-02-19 02:45:00,21.2,4.0,29.96,WNW,292,4.2,16.1,45,0.00,,,0.00,Rainwise IP-100,2013-02-19 07:45:00,
2013-02-19 02:50:00,21.2,4.0,29.95,NNW,337,4.2,13.5,45,0.00,,,0.00,Rainwise IP-100,2013-02-19 07:50:00,
2013-02-19 02:55:00,21.2,4.0,29.96,SW,225,2.3,13.3,46,0.00,,,0.00,Rainwise IP-100,2013-02-19 07:55:00,
2013-02-19 03:00:00,21.2,4.0,29.93,West,270,4.7,20.8,46,0.00,,,0.00,Rainwise IP-100,2013-02-19 08:00:00,
2013-02-19 03:05:00,21.1,4.0,29.95,NW,315,5.6,16.8,46,0.00,,,0.00,Rainwise IP-100,2013-02-19 08:05:00,
2013-02-19 03:10:00,21.0,4.0,29.92,NW,315,9.3,17.0,46,0.00,,,0.00,Rainwise IP-100,2013-02-19 08:10:00,
2013-02-19 03:15:00,21.0,4.0,29.93,WSW,247,12.1,16.3,47,0.00,,,0.00,Rainwise IP-100,2013-02-19 08:15:00,
2013-02-19 03:20:00,21.0,4.0,29.95,NW,315,5.1,21.2,46,0.00,,,0.00,Rainwise IP-100,2013-02-19 08:20:00,
2013-02-19 03:25:00,21.0,4.0,29.96,WNW,292,11.7,21.9,46,0.00,,,0.00,Rainwise IP-100,2013-02-19 08:25:00,
2013-02-19 03:30:00,21.1,4.0,29.95,West,270,11.4,26.8,45,0.00,,,0.00,Rainwise IP-100,2013-02-19 08:30:00,
2013-02-19 03:35:00,21.2,4.0,29.98,WSW,247,5.6,24.7,45,0.00,,,0.00,Rainwise IP-100,2013-02-19 08:35:00,
2013-02-19 03:40:00,21.1,4.0,29.96,West,270,4.4,21.5,46,0.00,,,0.00,Rainwise IP-100,2013-02-19 08:40:00,
2013-02-19 03:45:00,21.2,4.0,29.95,WNW,292,11.2,18.0,46,0.00,,,0.00,Rainwise IP-100,2013-02-19 08:45:00,
2013-02-19 03:50:00,21.3,4.0,29.95,WNW,292,6.3,19.6,46,0.00,,,0.00,Rainwise IP-100,2013-02-19 08:50:00,
2013-02-19 03:55:00,21.3,4.0,29.97,WNW,292,9.8,17.0,46,0.00,,,0.00,Rainwise IP-100,2013-02-19 08:55:00,
2013-02-19 04:00:00,21.4,4.0,29.97,NW,315,9.1,23.8,46,0.00,,,0.00,Rainwise IP-100,2013-02-19 09:00:00,
2013-02-19 04:05:00,21.4,4.0,29.94,WNW,292,9.3,15.4,46,0.00,,,0.00,Rainwise IP-100,2013-02-19 09:05:00,
2013-02-19 04:10:00,21.3,4.0,29.99,WNW,292,6.5,18.0,46,0.00,,,0.00,Rainwise IP-100,2013-02-19 09:10:00,
2013-02-19 04:15:00,21.3,4.0,29.99,NW,315,7.5,16.8,46,0.00,,,0.00,Rainwise IP-100,2013-02-19 09:15:00,
2013-02-19 04:20:00,21.4,4.0,30.00,West,270,7.0,20.8,45,0.00,,,0.00,Rainwise IP-100,2013-02-19 09:20:00,
2013-02-19 04:25:00,21.4,4.0,29.99,WNW,292,1.9,23.6,45,0.00,,,0.00,Rainwise IP-100,2013-02-19 09:25:00,
2013-02-19 04:30:00,21.3,4.0,29.99,West,270,5.1,15.9,45,0.00,,,0.00,Rainwise IP-100,2013-02-19 09:30:00,
2013-02-19 04:35:00,21.3,4.0,29.98,West,270,5.8,21.7,45,0.00,,,0.00,Rainwise IP-100,2013-02-19 09:35:00,
2013-02-19 04:40:00,21.3,4.0,30.00,WNW,292,3.5,18.7,45,0.00,,,0.00,Rainwise IP-100,2013-02-19 09:40:00,
2013-02-19 04:45:00,21.4,4.0,29.98,NW,315,4.9,19.8,44,0.00,,,0.00,Rainwise IP-100,2013-02-19 09:45:00,
2013-02-19 04:50:00,21.4,4.0,30.00,West,270,5.6,18.2,44,0.00,,,0.00,Rainwise IP-100,2013-02-19 09:50:00,
2013-02-19 04:56:00,21.2,4.0,30.01,WNW,292,8.2,12.1,45,0.00,,,0.00,Rainwise IP-100,2013-02-19 09:56:00,
2013-02-19 05:01:00,21.1,4.0,30.00,NW,315,13.1,15.4,46,0.00,,,0.00,Rainwise IP-100,2013-02-19 10:01:00,
2013-02-19 05:06:00,21.2,4.0,30.02,WNW,292,11.9,14.9,46,0.00,,,0.00,Rainwise IP-100,2013-02-19 10:06:00,
2013-02-19 05:11:00,21.4,4.0,30.00,NW,315,20.3,20.3,46,0.00,,,0.00,Rainwise IP-100,2013-02-19 10:11:00,
2013-02-19 05:16:00,21.4,4.0,30.02,NNW,337,5.1,20.3,45,0.00,,,0.00,Rainwise IP-100,2013-02-19 10:16:00,
2013-02-19 05:21:00,21.6,4.0,30.00,WNW,292,4.7,14.7,44,0.00,,,0.00,Rainwise IP-100,2013-02-19 10:21:00,
2013-02-19 05:26:00,21.8,4.0,30.00,WNW,292,3.5,14.7,44,0.00,,,0.00,Rainwise IP-100,2013-02-19 10:26:00,
2013-02-19 05:31:00,21.8,4.0,30.04,WSW,247,11.9,14.0,43,0.00,,,0.00,Rainwise IP-100,2013-02-19 10:31:00,
2013-02-19 05:36:00,21.9,4.0,30.02,WNW,292,4.0,13.8,43,0.00,,,0.00,Rainwise IP-100,2013-02-19 10:36:00,
2013-02-19 05:41:00,21.9,4.0,30.02,NW,315,1.9,10.5,43,0.00,,,0.00,Rainwise IP-100,2013-02-19 10:41:00,
2013-02-19 05:46:00,21.8,4.0,30.02,NNW,337,3.5,8.6,43,0.00,,,0.00,Rainwise IP-100,2013-02-19 10:46:00,
2013-02-19 05:51:00,21.7,4.0,30.04,NNW,337,4.7,8.4,44,0.00,,,0.00,Rainwise IP-100,2013-02-19 10:51:00,
2013-02-19 05:56:00,21.7,4.0,30.02,NNW,337,3.5,7.0,44,0.00,,,0.00,Rainwise IP-100,2013-02-19 10:56:00,
2013-02-19 06:01:00,21.8,4.0,30.03,WNW,292,2.6,7.7,44,0.00,,,0.00,Rainwise IP-100,2013-02-19 11:01:00,
2013-02-19 06:06:00,21.7,4.0,30.05,NW,315,1.9,9.1,44,0.00,,,0.00,Rainwise IP-100,2013-02-19 11:06:00,
2013-02-19 06:11:00,21.7,4.0,30.04,WNW,292,4.4,6.5,44,0.00,,,0.00,Rainwise IP-100,2013-02-19 11:11:00,
2013-02-19 06:16:00,21.6,4.0,30.04,WNW,292,2.8,6.1,44,0.00,,,0.00,Rainwise IP-100,2013-02-19 11:16:00,
2013-02-19 06:21:00,21.5,4.0,30.04,NW,315,4.4,12.6,44,0.00,,,0.00,Rainwise IP-100,2013-02-19 11:21:00,
2013-02-19 06:26:00,21.6,4.0,30.04,WNW,292,3.3,8.2,43,0.00,,,0.00,Rainwise IP-100,2013-02-19 11:26:00,
2013-02-19 06:31:00,21.7,4.0,30.01,WNW,292,8.6,8.9,43,0.00,,,0.00,Rainwise IP-100,2013-02-19 11:31:00,
2013-02-19 06:36:00,21.8,4.0,30.06,NW,315,4.2,8.6,44,0.00,,,0.00,Rainwise IP-100,2013-02-19 11:36:00,
2013-02-19 06:41:00,21.9,4.0,30.06,WNW,292,4.7,10.0,44,0.00,,,0.00,Rainwise IP-100,2013-02-19 11:41:00,
2013-02-19 06:46:00,21.9,4.0,30.05,NW,315,7.7,7.7,45,0.00,,,0.00,Rainwise IP-100,2013-02-19 11:46:00,
2013-02-19 06:51:00,22.0,4.0,30.03,NW,315,8.4,8.4,45,0.00,,,0.00,Rainwise IP-100,2013-02-19 11:51:00,
2013-02-19 06:56:00,22.2,4.0,30.07,West,270,2.6,8.6,45,0.00,,,0.00,Rainwise IP-100,2013-02-19 11:56:00,
2013-02-19 07:01:00,22.4,4.0,30.04,WNW,292,6.5,7.0,45,0.00,,,0.00,Rainwise IP-100,2013-02-19 12:01:00,
2013-02-19 07:06:00,22.6,4.0,30.07,NW,315,3.5,6.5,44,0.00,,,0.00,Rainwise IP-100,2013-02-19 12:06:00,
2013-02-19 07:11:00,22.8,4.0,30.06,WNW,292,4.2,7.0,44,0.00,,,0.00,Rainwise IP-100,2013-02-19 12:11:00,
2013-02-19 07:16:00,23.0,4.0,30.04,WNW,292,4.0,8.2,43,0.00,,,0.00,Rainwise IP-100,2013-02-19 12:16:00,
2013-02-19 07:21:00,23.2,4.0,30.06,WNW,292,4.2,9.3,43,0.00,,,0.00,Rainwise IP-100,2013-02-19 12:21:00,
2013-02-19 07:26:00,23.5,8.0,30.07,NW,315,9.3,12.1,43,0.00,,,0.00,Rainwise IP-100,2013-02-19 12:26:00,
2013-02-19 07:31:00,23.8,4.0,30.06,WNW,292,5.8,11.4,41,0.00,,,0.00,Rainwise IP-100,2013-02-19 12:31:00,
2013-02-19 07:36:00,24.1,4.0,30.05,West,270,2.3,11.9,40,0.00,,,0.00,Rainwise IP-100,2013-02-19 12:36:00,
2013-02-19 07:41:00,24.4,4.0,30.06,WNW,292,4.0,11.9,40,0.00,,,0.00,Rainwise IP-100,2013-02-19 12:41:00,
2013-02-19 07:46:00,24.6,4.0,30.09,WNW,292,5.4,13.1,39,0.00,,,0.00,Rainwise IP-100,2013-02-19 12:46:00,
2013-02-19 07:51:00,24.7,4.0,30.08,NW,315,3.7,10.7,38,0.00,,,0.00,Rainwise IP-100,2013-02-19 12:51:00,
2013-02-19 07:56:00,24.9,4.0,30.08,NW,315,3.0,9.8,38,0.00,,,0.00,Rainwise IP-100,2013-02-19 12:56:00,
2013-02-19 08:01:00,25.1,4.0,30.05,NW,315,5.8,11.9,38,0.00,,,0.00,Rainwise IP-100,2013-02-19 13:01:00,
2013-02-19 08:06:00,25.3,4.0,30.06,NW,315,6.8,11.2,38,0.00,,,0.00,Rainwise IP-100,2013-02-19 13:06:00,
2013-02-19 08:11:00,25.5,4.0,30.06,WNW,292,4.2,14.2,38,0.00,,,0.00,Rainwise IP-100,2013-02-19 13:11:00,
2013-02-19 08:16:00,25.7,4.0,30.07,NNW,337,6.1,11.0,37,0.00,,,0.00,Rainwise IP-100,2013-02-19 13:16:00,
2013-02-19 08:21:00,26.1,4.0,30.08,West,270,5.1,9.3,37,0.00,,,0.00,Rainwise IP-100,2013-02-19 13:21:00,
2013-02-19 08:26:00,26.4,4.0,30.07,WNW,292,5.4,9.6,37,0.00,,,0.00,Rainwise IP-100,2013-02-19 13:26:00,
2013-02-19 08:31:00,26.6,8.0,30.08,NW,315,6.3,10.7,37,0.00,,,0.00,Rainwise IP-100,2013-02-19 13:31:00,
2013-02-19 08:36:00,26.7,4.0,30.08,WNW,292,4.2,10.5,36,0.00,,,0.00,Rainwise IP-100,2013-02-19 13:36:00,
2013-02-19 08:41:00,26.9,8.0,30.06,NNW,337,7.0,10.3,37,0.00,,,0.00,Rainwise IP-100,2013-02-19 13:41:00,
2013-02-19 08:46:00,27.1,4.0,30.07,WNW,292,4.4,12.8,36,0.00,,,0.00,Rainwise IP-100,2013-02-19 13:46:00,
2013-02-19 08:51:00,27.3,4.0,30.05,NW,315,7.5,13.5,36,0.00,,,0.00,Rainwise IP-100,2013-02-19 13:51:00,
2013-02-19 08:56:00,27.6,4.0,30.09,North,0,3.3,13.5,36,0.00,,,0.00,Rainwise IP-100,2013-02-19 13:56:00,
2013-02-19 09:01:00,28.0,4.0,30.06,NW,315,3.5,14.2,36,0.00,,,0.00,Rainwise IP-100,2013-02-19 14:01:00,
2013-02-19 09:06:00,28.3,4.0,30.07,NW,315,4.4,9.3,36,0.00,,,0.00,Rainwise IP-100,2013-02-19 14:06:00,
2013-02-19 09:11:00,28.6,8.0,30.08,NW,315,4.2,9.8,35,0.00,,,0.00,Rainwise IP-100,2013-02-19 14:11:00,
2013-02-19 09:16:00,29.1,8.0,30.08,NNW,337,9.1,10.0,35,0.00,,,0.00,Rainwise IP-100,2013-02-19 14:16:00,
2013-02-19 09:21:00,29.6,8.0,30.07,NNW,337,8.2,9.8,35,0.00,,,0.00,Rainwise IP-100,2013-02-19 14:21:00,
2013-02-19 09:26:00,29.4,8.0,30.08,WNW,292,4.4,13.3,35,0.00,,,0.00,Rainwise IP-100,2013-02-19 14:26:00,
2013-02-19 09:31:00,29.2,8.0,30.09,NNW,337,5.1,12.6,36,0.00,,,0.00,Rainwise IP-100,2013-02-19 14:31:00,
2013-02-19 09:36:00,29.4,8.0,30.07,NNW,337,7.7,12.8,36,0.00,,,0.00,Rainwise IP-100,2013-02-19 14:36:00,
2013-02-19 09:41:00,29.8,8.0,30.08,NW,315,6.5,10.7,35,0.00,,,0.00,Rainwise IP-100,2013-02-19 14:41:00,
2013-02-19 09:46:00,30.0,8.0,30.07,NNW,337,7.7,11.4,35,0.00,,,0.00,Rainwise IP-100,2013-02-19 14:46:00,
2013-02-19 09:51:00,30.0,8.0,30.07,NNW,337,8.2,10.5,34,0.00,,,0.00,Rainwise IP-100,2013-02-19 14:51:00,
2013-02-19 09:56:00,29.9,8.0,30.05,NNW,337,10.5,11.2,35,0.00,,,0.00,Rainwise IP-100,2013-02-19 14:56:00,
2013-02-19 10:01:00,30.0,8.0,30.08,NNW,337,5.8,11.2,36,0.00,,,0.00,Rainwise IP-100,2013-02-19 15:01:00,
2013-02-19 10:06:00,30.3,8.0,30.05,NW,315,6.8,10.3,36,0.00,,,0.00,Rainwise IP-100,2013-02-19 15:06:00,
2013-02-19 10:11:00,30.8,8.0,30.06,NNW,337,4.0,10.0,36,0.00,,,0.00,Rainwise IP-100,2013-02-19 15:11:00,
2013-02-19 10:16:00,31.5,8.0,30.05,NNW,337,5.8,11.4,36,0.00,,,0.00,Rainwise IP-100,2013-02-19 15:16:00,
2013-02-19 10:21:00,31.9,8.0,30.06,NW,315,5.8,11.9,35,0.00,,,0.00,Rainwise IP-100,2013-02-19 15:21:00,
2013-02-19 10:26:00,32.0,8.0,30.05,NNW,337,5.4,11.4,35,0.00,,,0.00,Rainwise IP-100,2013-02-19 15:26:00,
2013-02-19 10:31:00,32.1,8.0,30.05,NNW,337,7.9,11.4,36,0.00,,,0.00,Rainwise IP-100,2013-02-19 15:31:00,
2013-02-19 10:36:00,32.3,11.0,30.07,NNW,337,6.8,9.8,37,0.00,,,0.00,Rainwise IP-100,2013-02-19 15:36:00,
2013-02-19 10:41:00,32.9,11.0,30.08,NW,315,7.9,10.0,37,0.00,,,0.00,Rainwise IP-100,2013-02-19 15:41:00,
2013-02-19 10:46:00,33.5,11.0,30.06,NNW,337,6.1,10.0,35,0.00,,,0.00,Rainwise IP-100,2013-02-19 15:46:00,
2013-02-19 10:51:00,33.8,11.0,30.05,NNW,337,3.0,8.9,35,0.00,,,0.00,Rainwise IP-100,2013-02-19 15:51:00,
2013-02-19 10:56:00,34.3,11.0,30.04,NNW,337,2.8,6.5,36,0.00,,,0.00,Rainwise IP-100,2013-02-19 15:56:00,
2013-02-19 11:01:00,35.2,11.0,30.06,NNW,337,4.4,5.6,36,0.00,,,0.00,Rainwise IP-100,2013-02-19 16:01:00,
2013-02-19 11:06:00,35.7,11.0,30.06,NNW,337,5.6,6.8,35,0.00,,,0.00,Rainwise IP-100,2013-02-19 16:06:00,
2013-02-19 11:11:00,35.9,11.0,30.06,NNE,22,4.0,6.8,35,0.00,,,0.00,Rainwise IP-100,2013-02-19 16:11:00,
2013-02-19 11:16:00,36.6,14.0,30.06,NE,45,4.2,5.6,35,0.00,,,0.00,Rainwise IP-100,2013-02-19 16:16:00,
2013-02-19 11:21:00,36.5,14.0,30.06,ENE,67,2.8,5.1,36,0.00,,,0.00,Rainwise IP-100,2013-02-19 16:21:00,
2013-02-19 11:26:00,35.9,14.0,30.08,NE,45,2.8,4.4,37,0.00,,,0.00,Rainwise IP-100,2013-02-19 16:26:00,
2013-02-19 11:31:00,36.1,14.0,30.06,ENE,67,3.5,5.1,37,0.00,,,0.00,Rainwise IP-100,2013-02-19 16:31:00,
2013-02-19 11:36:00,36.0,14.0,30.06,ESE,112,0.0,4.2,38,0.00,,,0.00,Rainwise IP-100,2013-02-19 16:36:00,
2013-02-19 11:41:00,35.8,14.0,30.07,ESE,112,2.8,4.4,39,0.00,,,0.00,Rainwise IP-100,2013-02-19 16:41:00,
2013-02-19 11:46:00,35.4,14.0,30.05,ESE,112,4.9,6.3,39,0.00,,,0.00,Rainwise IP-100,2013-02-19 16:46:00,
2013-02-19 11:51:00,35.2,14.0,30.08,ESE,112,4.7,4.9,38,0.00,,,0.00,Rainwise IP-100,2013-02-19 16:51:00,
2013-02-19 11:56:00,35.3,14.0,30.07,ESE,112,2.8,5.4,38,0.00,,,0.00,Rainwise IP-100,2013-02-19 16:56:00,
2013-02-19 12:01:00,35.7,14.0,30.08,ESE,112,0.0,4.9,39,0.00,,,0.00,Rainwise IP-100,2013-02-19 17:01:00,
2013-02-19 12:06:00,36.6,16.0,30.07,ESE,112,3.7,3.7,39,0.00,,,0.00,Rainwise IP-100,2013-02-19 17:06:00,
2013-02-19 12:11:00,36.8,16.0,30.05,SE,135,0.0,3.7,39,0.00,,,0.00,Rainwise IP-100,2013-02-19 17:11:00,
2013-02-19 12:16:00,36.8,14.0,30.04,ESE,112,1.4,1.4,38,0.00,,,0.00,Rainwise IP-100,2013-02-19 17:16:00,
2013-02-19 12:21:00,37.3,14.0,30.06,East,90,1.2,5.8,37,0.00,,,0.00,Rainwise IP-100,2013-02-19 17:21:00,
2013-02-19 12:26:00,37.4,14.0,30.06,ESE,112,3.3,5.8,37,0.00,,,0.00,Rainwise IP-100,2013-02-19 17:26:00,
2013-02-19 12:31:00,37.5,16.0,30.05,ESE,112,3.3,5.6,38,0.00,,,0.00,Rainwise IP-100,2013-02-19 17:31:00,
2013-02-19 12:36:00,37.4,16.0,30.07,ESE,112,4.9,7.2,40,0.00,,,0.00,Rainwise IP-100,2013-02-19 17:36:00,
2013-02-19 12:41:00,36.6,16.0,30.06,ESE,112,5.8,6.3,41,0.00,,,0.00,Rainwise IP-100,2013-02-19 17:41:00,
2013-02-19 12:46:00,36.3,16.0,30.05,SE,135,6.8,8.9,42,0.00,,,0.00,Rainwise IP-100,2013-02-19 17:46:00,
2013-02-19 12:51:00,36.3,16.0,30.06,SE,135,6.8,9.6,45,0.00,,,0.00,Rainwise IP-100,2013-02-19 17:51:00,
2013-02-19 12:56:00,35.8,21.0,30.03,SE,135,6.3,12.4,51,0.00,,,0.00,Rainwise IP-100,2013-02-19 17:56:00,
2013-02-19 13:01:00,35.7,21.0,30.03,ESE,112,4.2,9.8,53,0.00,,,0.00,Rainwise IP-100,2013-02-19 18:01:00,
2013-02-19 13:06:00,36.2,21.0,30.04,SE,135,3.3,8.2,53,0.00,,,0.00,Rainwise IP-100,2013-02-19 18:06:00,
2013-02-19 13:11:00,36.6,23.0,30.03,ESE,112,3.3,8.2,53,0.00,,,0.00,Rainwise IP-100,2013-02-19 18:11:00,
2013-02-19 13:16:00,36.5,23.0,30.02,SE,135,4.4,8.4,54,0.00,,,0.00,Rainwise IP-100,2013-02-19 18:16:00,
2013-02-19 13:21:00,36.3,23.0,30.06,ESE,112,5.4,10.7,56,0.00,,,0.00,Rainwise IP-100,2013-02-19 18:21:00,
2013-02-19 13:26:00,36.4,23.0,30.05,East,90,1.2,6.8,57,0.00,,,0.00,Rainwise IP-100,2013-02-19 18:26:00,
2013-02-19 13:31:00,37.2,23.0,30.02,SSE,157,5.4,5.4,56,0.00,,,0.00,Rainwise IP-100,2013-02-19 18:31:00,
2013-02-19 13:36:00,37.3,23.0,30.05,SSE,157,8.6,9.6,54,0.00,,,0.00,Rainwise IP-100,2013-02-19 18:36:00,
2013-02-19 13:41:00,37.3,21.0,30.03,SE,135,3.7,8.9,52,0.00,,,0.00,Rainwise IP-100,2013-02-19 18:41:00,
2013-02-19 13:46:00,37.8,21.0,30.02,SSE,157,5.6,6.1,49,0.00,,,0.00,Rainwise IP-100,2013-02-19 18:46:00,
2013-02-19 13:51:00,38.7,18.0,30.05,ESE,112,1.2,5.8,42,0.00,,,0.00,Rainwise IP-100,2013-02-19 18:51:00,
2013-02-19 13:56:00,39.7,16.0,30.02,East,90,2.6,3.7,37,0.00,,,0.00,Rainwise IP-100,2013-02-19 18:56:00,
2013-02-19 14:01:00,40.4,16.0,30.04,SE,135,2.8,4.9,35,0.00,,,0.00,Rainwise IP-100,2013-02-19 19:01:00,
2013-02-19 14:06:00,40.8,16.0,30.05,East,90,0.0,3.3,33,0.00,,,0.00,Rainwise IP-100,2013-02-19 19:06:00,
2013-02-19 14:11:00,41.2,16.0,30.05,East,90,1.6,2.6,34,0.00,,,0.00,Rainwise IP-100,2013-02-19 19:11:00,
2013-02-19 14:16:00,41.2,18.0,30.02,East,90,0.0,3.5,38,0.00,,,0.00,Rainwise IP-100,2013-02-19 19:16:00,
2013-02-19 14:21:00,41.1,18.0,30.02,SW,225,3.3,3.3,38,0.00,,,0.00,Rainwise IP-100,2013-02-19 19:21:00,
2013-02-19 14:26:00,40.8,16.0,30.02,SSW,202,6.1,7.2,35,0.00,,,0.00,Rainwise IP-100,2013-02-19 19:26:00,
2013-02-19 14:31:00,40.1,16.0,30.03,SSW,202,2.6,9.6,36,0.00,,,0.00,Rainwise IP-100,2013-02-19 19:31:00,
2013-02-19 14:36:00,39.7,18.0,29.99,SE,135,3.7,5.4,39,0.00,,,0.00,Rainwise IP-100,2013-02-19 19:36:00,
2013-02-19 14:41:00,39.6,18.0,30.03,SSE,157,4.9,6.3,41,0.00,,,0.00,Rainwise IP-100,2013-02-19 19:41:00,
2013-02-19 14:46:00,39.3,18.0,30.02,SSE,157,4.9,8.4,43,0.00,,,0.00,Rainwise IP-100,2013-02-19 19:46:00,
2013-02-19 14:51:00,38.9,18.0,30.02,SSW,202,4.7,7.0,43,0.00,,,0.00,Rainwise IP-100,2013-02-19 19:51:00,
2013-02-19 14:56:00,39.0,18.0,30.02,SSW,202,2.3,5.6,43,0.00,,,0.00,Rainwise IP-100,2013-02-19 19:56:00,
2013-02-19 15:01:00,39.2,18.0,30.02,SSW,202,4.2,4.7,42,0.00,,,0.00,Rainwise IP-100,2013-02-19 20:01:00,
2013-02-19 15:06:00,39.3,18.0,30.02,WSW,247,2.1,5.4,41,0.00,,,0.00,Rainwise IP-100,2013-02-19 20:06:00,
2013-02-19 15:11:00,39.3,18.0,30.02,WSW,247,0.0,2.1,40,0.00,,,0.00,Rainwise IP-100,2013-02-19 20:11:00,
2013-02-19 15:16:00,39.3,16.0,30.01,SSW,202,0.0,2.8,39,0.00,,,0.00,Rainwise IP-100,2013-02-19 20:16:00,
2013-02-19 15:21:00,39.2,16.0,30.00,SSW,202,0.0,1.2,39,0.00,,,0.00,Rainwise IP-100,2013-02-19 20:21:00,
2013-02-19 15:26:00,39.1,16.0,30.00,South,180,2.1,7.5,39,0.00,,,0.00,Rainwise IP-100,2013-02-19 20:26:00,
2013-02-19 15:31:00,38.7,16.0,30.01,SSE,157,4.0,5.4,39,0.00,,,0.00,Rainwise IP-100,2013-02-19 20:31:00,
2013-02-19 15:36:00,37.9,16.0,30.00,SSW,202,4.4,9.6,41,0.00,,,0.00,Rainwise IP-100,2013-02-19 20:36:00,
2013-02-19 15:41:00,37.4,16.0,29.99,SW,225,3.5,7.0,42,0.00,,,0.00,Rainwise IP-100,2013-02-19 20:41:00,
2013-02-19 15:46:00,37.1,16.0,30.01,SW,225,3.3,9.3,43,0.00,,,0.00,Rainwise IP-100,2013-02-19 20:46:00,
2013-02-19 15:51:00,36.8,18.0,30.00,SSW,202,4.4,6.8,44,0.00,,,0.00,Rainwise IP-100,2013-02-19 20:51:00,
2013-02-19 15:56:00,36.6,16.0,30.02,SSW,202,10.0,10.0,43,0.00,,,0.00,Rainwise IP-100,2013-02-19 20:56:00,
2013-02-19 16:01:00,36.6,16.0,30.01,SSW,202,1.6,11.2,39,0.00,,,0.00,Rainwise IP-100,2013-02-19 21:01:00,
2013-02-19 16:06:00,36.5,14.0,30.01,SSW,202,4.9,7.0,38,0.00,,,0.00,Rainwise IP-100,2013-02-19 21:06:00,
2013-02-19 16:11:00,36.3,16.0,29.99,SSW,202,1.9,6.3,41,0.00,,,0.00,Rainwise IP-100,2013-02-19 21:11:00,
2013-02-19 16:16:00,36.1,16.0,29.98,SSE,157,1.4,4.0,45,0.00,,,0.00,Rainwise IP-100,2013-02-19 21:16:00,
2013-02-19 16:21:00,35.8,18.0,29.99,SSW,202,1.2,4.9,48,0.00,,,0.00,Rainwise IP-100,2013-02-19 21:21:00,
2013-02-19 16:26:00,35.7,21.0,29.96,SE,135,4.7,4.7,51,0.00,,,0.00,Rainwise IP-100,2013-02-19 21:26:00,
2013-02-19 16:31:00,35.6,21.0,29.96,SE,135,4.2,5.8,53,0.00,,,0.00,Rainwise IP-100,2013-02-19 21:31:00,
2013-02-19 16:36:00,35.6,23.0,29.98,NNE,22,2.3,5.8,55,0.00,,,0.00,Rainwise IP-100,2013-02-19 21:36:00,
2013-02-19 16:41:00,35.7,23.0,29.98,ENE,67,2.6,3.5,56,0.00,,,0.00,Rainwise IP-100,2013-02-19 21:41:00,
2013-02-19 16:46:00,35.7,23.0,30.01,North,0,2.6,3.3,57,0.00,,,0.00,Rainwise IP-100,2013-02-19 21:46:00,
2013-02-19 16:51:00,35.6,23.0,29.99,NNW,337,3.7,3.7,58,0.00,,,0.00,Rainwise IP-100,2013-02-19 21:51:00,
2013-02-19 16:56:00,35.6,23.0,29.98,NNE,22,2.1,5.4,58,0.00,,,0.00,Rainwise IP-100,2013-02-19 21:56:00,
2013-02-19 17:01:00,35.6,23.0,29.98,NNE,22,3.0,6.3,58,0.00,,,0.00,Rainwise IP-100,2013-02-19 22:01:00,
2013-02-19 17:06:00,35.6,23.0,29.99,NE,45,0.0,6.5,59,0.00,,,0.00,Rainwise IP-100,2013-02-19 22:06:00,
2013-02-19 17:11:00,35.8,23.0,30.00,East,90,5.1,5.1,59,0.00,,,0.00,Rainwise IP-100,2013-02-19 22:11:00,
2013-02-19 17:16:00,36.1,23.0,29.99,SSE,157,1.2,8.2,59,0.00,,,0.00,Rainwise IP-100,2013-02-19 22:16:00,
2013-02-19 17:21:00,36.5,24.0,29.96,SSE,157,2.6,6.3,60,0.00,,,0.00,Rainwise IP-100,2013-02-19 22:21:00,
2013-02-19 17:26:00,36.6,24.0,29.98,ESE,112,6.5,8.4,61,0.00,,,0.00,Rainwise IP-100,2013-02-19 22:26:00,
2013-02-19 17:31:00,36.6,26.0,29.96,SSE,157,7.2,9.8,62,0.00,,,0.00,Rainwise IP-100,2013-02-19 22:31:00,
2013-02-19 17:36:00,36.5,26.0,29.97,ESE,112,5.4,10.0,64,0.00,,,0.00,Rainwise IP-100,2013-02-19 22:36:00,
2013-02-19 17:41:00,36.4,26.0,29.94,SE,135,7.9,10.3,67,0.00,,,0.00,Rainwise IP-100,2013-02-19 22:41:00,
2013-02-19 17:46:00,36.1,28.0,29.95,SE,135,4.9,10.7,70,0.00,,,0.00,Rainwise IP-100,2013-02-19 22:46:00,
2013-02-19 17:51:00,35.9,28.0,29.96,SE,135,8.2,9.3,72,0.00,,,0.00,Rainwise IP-100,2013-02-19 22:51:00,
2013-02-19 17:56:00,36.0,28.0,29.95,SE,135,6.3,10.7,72,0.00,,,0.00,Rainwise IP-100,2013-02-19 22:56:00,
2013-02-19 18:01:00,36.2,28.0,29.95,SE,135,5.1,10.0,73,0.00,,,0.00,Rainwise IP-100,2013-02-19 23:01:00,
2013-02-19 18:06:00,36.2,29.0,29.94,ESE,112,6.3,8.2,74,0.00,,,0.00,Rainwise IP-100,2013-02-19 23:06:00,
2013-02-19 18:11:00,36.1,29.0,29.94,ESE,112,5.1,8.4,75,0.00,,,0.00,Rainwise IP-100,2013-02-19 23:11:00,
2013-02-19 18:16:00,36.1,29.0,29.98,SE,135,6.1,10.0,77,0.00,,,0.00,Rainwise IP-100,2013-02-19 23:16:00,
2013-02-19 18:21:00,36.2,29.0,29.95,SE,135,2.1,7.9,78,0.00,,,0.00,Rainwise IP-100,2013-02-19 23:21:00,
2013-02-19 18:26:00,36.2,31.0,29.95,ESE,112,4.9,7.0,79,0.00,,,0.00,Rainwise IP-100,2013-02-19 23:26:00,
2013-02-19 18:31:00,36.1,31.0,29.94,ESE,112,4.0,7.0,79,0.00,,,0.00,Rainwise IP-100,2013-02-19 23:31:00,
2013-02-19 18:36:00,36.2,31.0,29.95,ESE,112,4.4,7.9,80,0.00,,,0.00,Rainwise IP-100,2013-02-19 23:36:00,
2013-02-19 18:41:00,36.2,31.0,29.96,ESE,112,4.9,6.1,80,0.00,,,0.00,Rainwise IP-100,2013-02-19 23:41:00,
2013-02-19 18:46:00,36.2,31.0,29.93,ESE,112,5.1,6.8,81,0.00,,,0.00,Rainwise IP-100,2013-02-19 23:46:00,
2013-02-19 18:51:00,36.4,31.0,29.95,SE,135,3.5,7.5,82,0.00,,,0.00,Rainwise IP-100,2013-02-19 23:51:00,
2013-02-19 18:56:00,36.7,32.0,29.93,ESE,112,8.2,9.6,82,0.00,,,0.00,Rainwise IP-100,2013-02-19 23:56:00,
2013-02-19 19:01:00,37.1,32.0,29.94,SE,135,9.1,13.5,81,0.00,,,0.00,Rainwise IP-100,2013-02-20 00:01:00,
2013-02-19 19:06:00,37.5,33.0,29.94,ESE,112,9.3,13.5,81,0.00,,,0.00,Rainwise IP-100,2013-02-20 00:06:00,
2013-02-19 19:11:00,37.5,33.0,29.93,ESE,112,3.7,12.1,82,0.00,,,0.00,Rainwise IP-100,2013-02-20 00:11:00,
2013-02-19 19:16:00,37.6,33.0,29.94,ESE,112,5.8,12.1,83,0.00,,,0.00,Rainwise IP-100,2013-02-20 00:16:00,
2013-02-19 19:21:00,37.7,33.0,29.93,ESE,112,3.7,13.1,84,0.00,,,0.00,Rainwise IP-100,2013-02-20 00:21:00,
2013-02-19 19:26:00,37.7,35.0,29.91,ENE,67,6.1,9.6,85,0.00,,,0.00,Rainwise IP-100,2013-02-20 00:26:00,
2013-02-19 19:31:00,37.8,35.0,29.93,SSE,157,2.3,10.5,85,0.00,,,0.00,Rainwise IP-100,2013-02-20 00:31:00,
2013-02-19 19:36:00,37.8,35.0,29.92,SE,135,3.5,6.8,85,0.00,,,0.00,Rainwise IP-100,2013-02-20 00:36:00,
2013-02-19 19:41:00,37.7,35.0,29.92,ESE,112,4.4,9.6,86,0.00,,,0.00,Rainwise IP-100,2013-02-20 00:41:00,
2013-02-19 19:46:00,37.5,35.0,29.91,SSE,157,6.8,10.7,87,0.00,,,0.00,Rainwise IP-100,2013-02-20 00:46:00,
2013-02-19 19:51:00,37.7,35.0,29.90,SSE,157,6.3,8.9,87,0.00,,,0.00,Rainwise IP-100,2013-02-20 00:51:00,
2013-02-19 19:56:00,38.4,35.0,29.89,SSE,157,8.6,10.5,85,0.00,,,0.00,Rainwise IP-100,2013-02-20 00:56:00,
2013-02-19 20:01:00,39.0,35.0,29.90,South,180,9.6,12.8,83,0.00,,,0.00,Rainwise IP-100,2013-02-20 01:01:00,
2013-02-19 20:06:00,39.3,35.0,29.89,SSE,157,6.1,13.5,83,0.00,,,0.00,Rainwise IP-100,2013-02-20 01:06:00,
2013-02-19 20:11:00,39.4,35.0,29.90,SSE,157,7.0,12.8,83,0.00,,,0.00,Rainwise IP-100,2013-02-20 01:11:00,
2013-02-19 20:16:00,39.4,35.0,29.90,SE,135,6.8,12.4,84,0.00,,,0.00,Rainwise IP-100,2013-02-20 01:16:00,
2013-02-19 20:21:00,39.3,35.0,29.91,SE,135,4.4,12.1,85,0.00,,,0.00,Rainwise IP-100,2013-02-20 01:21:00,
2013-02-19 20:26:00,39.2,36.0,29.89,SSE,157,6.3,9.8,87,0.00,,,0.00,Rainwise IP-100,2013-02-20 01:26:00,
2013-02-19 20:31:00,39.1,36.0,29.88,South,180,3.3,10.7,89,0.00,,,0.00,Rainwise IP-100,2013-02-20 01:31:00,
2013-02-19 20:36:00,38.9,37.0,29.88,SE,135,3.0,11.4,90,0.00,,,0.00,Rainwise IP-100,2013-02-20 01:36:00,
2013-02-19 20:41:00,38.9,37.0,29.88,SE,135,8.4,12.1,91,0.00,,,0.01,Rainwise IP-100,2013-02-20 01:41:00,
2013-02-19 20:46:00,39.0,37.0,29.86,ESE,112,3.7,10.7,91,0.06,,,0.01,Rainwise IP-100,2013-02-20 01:46:00,
2013-02-19 20:51:00,39.0,37.0,29.86,South,180,6.8,7.5,92,0.06,,,0.01,Rainwise IP-100,2013-02-20 01:51:00,
2013-02-19 20:56:00,39.1,37.0,29.85,ESE,112,1.6,8.4,93,0.00,,,0.01,Rainwise IP-100,2013-02-20 01:56:00,
2013-02-19 21:01:00,39.2,37.0,29.84,SE,135,1.9,7.0,93,0.00,,,0.01,Rainwise IP-100,2013-02-20 02:01:00,
2013-02-19 21:06:00,39.2,37.0,29.87,SE,135,3.7,13.5,93,0.00,,,0.01,Rainwise IP-100,2013-02-20 02:06:00,
2013-02-19 21:11:00,39.3,37.0,29.85,SSE,157,11.2,11.2,93,0.00,,,0.01,Rainwise IP-100,2013-02-20 02:11:00,
2013-02-19 21:16:00,39.2,38.0,29.84,SSE,157,3.7,14.5,94,0.00,,,0.01,Rainwise IP-100,2013-02-20 02:16:00,
2013-02-19 21:21:00,39.2,38.0,29.83,SE,135,4.9,11.0,94,0.00,,,0.01,Rainwise IP-100,2013-02-20 02:21:00,
2013-02-19 21:26:00,39.3,38.0,29.84,South,180,8.9,14.5,94,0.06,,,0.02,Rainwise IP-100,2013-02-20 02:26:00,
2013-02-19 21:31:00,39.4,38.0,29.82,SE,135,7.5,13.5,95,0.06,,,0.02,Rainwise IP-100,2013-02-20 02:31:00,
2013-02-19 21:36:00,39.5,39.0,29.84,SSE,157,4.0,14.2,95,0.00,,,0.02,Rainwise IP-100,2013-02-20 02:36:00,
2013-02-19 21:41:00,39.4,38.0,29.82,SSE,157,4.0,10.0,95,0.00,,,0.02,Rainwise IP-100,2013-02-20 02:41:00,
2013-02-19 21:46:00,39.3,38.0,29.84,SE,135,2.8,10.5,95,0.00,,,0.02,Rainwise IP-100,2013-02-20 02:46:00,
2013-02-19 21:51:00,39.3,38.0,29.84,SSE,157,5.4,11.2,96,0.00,,,0.02,Rainwise IP-100,2013-02-20 02:51:00,
2013-02-19 21:56:00,39.5,39.0,29.82,South,180,7.5,11.7,96,0.00,,,0.02,Rainwise IP-100,2013-02-20 02:56:00,
2013-02-19 22:01:00,39.6,39.0,29.83,SSE,157,8.4,11.9,96,0.00,,,0.02,Rainwise IP-100,2013-02-20 03:01:00,
2013-02-19 22:06:00,39.6,39.0,29.81,SSE,157,9.6,14.9,96,0.00,,,0.02,Rainwise IP-100,2013-02-20 03:06:00,
2013-02-19 22:11:00,39.8,39.0,29.81,SSE,157,7.0,15.4,96,0.00,,,0.02,Rainwise IP-100,2013-02-20 03:11:00,
2013-02-19 22:16:00,40.0,39.0,29.80,South,180,3.3,14.5,96,0.00,,,0.02,Rainwise IP-100,2013-02-20 03:16:00,
2013-02-19 22:21:00,39.9,39.0,29.80,SSW,202,5.4,13.8,96,0.00,,,0.02,Rainwise IP-100,2013-02-20 03:21:00,
2013-02-19 22:26:00,39.9,39.0,29.79,South,180,6.3,15.9,96,0.00,,,0.02,Rainwise IP-100,2013-02-20 03:26:00,
2013-02-19 22:31:00,39.8,39.0,29.80,SSW,202,9.3,14.9,96,0.00,,,0.02,Rainwise IP-100,2013-02-20 03:31:00,
2013-02-19 22:36:00,39.9,39.0,29.80,South,180,7.7,11.9,97,0.00,,,0.02,Rainwise IP-100,2013-02-20 03:36:00,
2013-02-19 22:41:00,40.0,39.0,29.79,SSE,157,8.9,16.6,97,0.00,,,0.02,Rainwise IP-100,2013-02-20 03:41:00,
2013-02-19 22:46:00,40.0,39.0,29.76,South,180,3.0,17.7,97,0.00,,,0.02,Rainwise IP-100,2013-02-20 03:46:00,
2013-02-19 22:51:00,40.1,39.0,29.77,South,180,12.8,15.4,97,0.00,,,0.02,Rainwise IP-100,2013-02-20 03:51:00,
2013-02-19 22:56:00,40.0,39.0,29.77,SSW,202,8.6,15.4,97,0.00,,,0.02,Rainwise IP-100,2013-02-20 03:56:00,
2013-02-19 23:01:00,40.0,39.0,29.77,South,180,9.1,15.4,97,0.06,,,0.03,Rainwise IP-100,2013-02-20 04:01:00,
2013-02-19 23:06:00,40.0,39.0,29.77,SSE,157,6.3,14.2,97,0.06,,,0.03,Rainwise IP-100,2013-02-20 04:06:00,
2013-02-19 23:11:00,40.0,39.0,29.74,South,180,3.5,14.9,97,0.00,,,0.03,Rainwise IP-100,2013-02-20 04:11:00,
2013-02-19 23:16:00,40.0,39.0,29.76,SSE,157,7.0,16.8,97,0.06,,,0.04,Rainwise IP-100,2013-02-20 04:16:00,
2013-02-19 23:21:00,40.0,39.0,29.76,SSE,157,5.6,13.8,97,0.06,,,0.04,Rainwise IP-100,2013-02-20 04:21:00,
2013-02-19 23:26:00,40.0,39.0,29.76,SSE,157,13.8,19.8,97,0.00,,,0.04,Rainwise IP-100,2013-02-20 04:26:00,
2013-02-19 23:31:00,40.1,39.0,29.76,SSE,157,16.6,16.8,97,0.00,,,0.04,Rainwise IP-100,2013-02-20 04:31:00,
2013-02-19 23:36:00,40.1,40.0,29.74,ESE,112,9.3,19.8,98,0.00,,,0.04,Rainwise IP-100,2013-02-20 04:36:00,
2013-02-19 23:41:00,40.2,40.0,29.76,SSE,157,8.6,20.3,98,0.06,,,0.05,Rainwise IP-100,2013-02-20 04:41:00,
2013-02-19 23:46:00,40.1,40.0,29.73,SSE,157,16.3,18.7,98,0.06,,,0.05,Rainwise IP-100,2013-02-20 04:46:00,
2013-02-19 23:51:00,40.0,40.0,29.75,SE,135,7.0,18.0,98,0.06,,,0.06,Rainwise IP-100,2013-02-20 04:51:00,
2013-02-19 23:56:00,40.1,40.0,29.74,SSE,157,11.0,17.7,98,0.06,,,0.06,Rainwise IP-100,2013-02-20 04:56:00,